Find Local Weather

World > North America > United States > New Jersey

West Milford Lakes, New Jersey Regional Weather

Lat: 41.09N, Lon: 74.37W
Wx Zone: NJZ002
Feedback

West Milford Lakes, NJ Regional Weather

Expires:201905250900;;424770
ASUS41 KPHI 250812
RWRPHI

REGIONAL WEATHER ROUNDUP
NATIONAL WEATHER SERVICE MOUNT HOLLY NJ
400 AM EDT SAT MAY 25 2019

NOTE:  "FAIR" INDICATES FEW OR NO CLOUDS BELOW 12,000 FEET WITH NO
SIGNIFICANT WEATHER AND/OR OBSTRUCTIONS TO VISIBILITY.

 * = STATION DOES NOT REPORT PRECIPITATION (E.G. RAIN, SNOW, ETC.) 
        OR FOG.


NJZ001>014-250900-
NORTHERN NEW JERSEY
  
CITY           SKY/WX    TMP DP  RH WIND       PRES   REMARKS
SUSSEX         FAIR      47  46  97 CALM      30.17F FOG              
ANDOVER*         N/A     49  47  93 CALM      30.16F                  
MORRISTOWN     FAIR      52  52 100 CALM      30.15F                  
NEWARK         FAIR      60  51  72 SE6       30.16R                  
TETERBORO      FAIR      58  50  75 CALM      30.14F                  
CALDWELL       FAIR      55  51  86 CALM      30.16F                  
SOMERVILLE     FAIR      52  49  89 CALM      30.13F                  
ALLAIRE*       FAIR      55  50  83 SE6       30.17S                  
TOMS RIVER*    FAIR      51  49  92 CALM      30.17S                  

$$

SKY/WX - Weather  TMP - Temperature  DP - Dew Point  RH - Relative Humidity
WIND - Wind Direction/Speed PRES - Barometric Pressure VSB - Visibility
WCI - Wind Chill Index E13G22 Wind - East Wind 13 mph/Gusts of 22 mph